Location: Bremen
(53.0793°N, 8.8017°E)
Time: 06:27:44
(UTC+02:00)

A-11 Canister half - All Passes

Search period start: 22 April 2024 00:00
Search period end: 02 May 2024 00:00
Orbit: 1525 x 1683 km, 47.3° (Epoch: 21 April)

Date Brightness Start Highest point End Pass type
(mag) Time Alt. Az. Time Alt. Az. Time Alt. Az.
22 Apr - 05:54:09 10° SSW 06:02:09 28° SE 06:10:15 10° E daylight
22 Apr - 07:56:04 10° SW 08:05:44 54° SSE 08:15:30 10° E daylight
22 Apr - 10:00:13 10° W 10:10:10 64° S 10:20:06 10° ESE daylight
22 Apr - 12:04:58 10° W 12:14:24 45° SSW 12:23:42 10° SE daylight
22 Apr - 14:11:02 10° W 14:17:29 19° SW 14:23:53 10° S daylight
23 Apr - 05:32:38 10° S 05:40:27 27° SE 05:48:24 10° E visible
23 Apr - 07:34:22 10° SW 07:43:59 53° SSE 07:53:43 10° E daylight
23 Apr - 09:38:28 10° W 09:48:24 64° S 09:58:21 10° ESE daylight
23 Apr - 11:43:11 10° W 11:52:40 46° SSW 12:02:03 10° SE daylight
23 Apr - 13:49:06 10° W 13:55:49 20° SW 14:02:30 10° S daylight
24 Apr - 05:11:08 10° S 05:18:47 26° SE 05:26:32 10° E visible
24 Apr - 07:12:41 10° SW 07:22:15 52° SSE 07:31:57 10° E daylight
24 Apr - 09:16:42 10° W 09:26:38 64° S 09:36:36 10° ESE daylight
24 Apr - 11:21:25 10° W 11:30:56 48° SSW 11:40:23 10° SE daylight
24 Apr - 13:27:11 10° W 13:34:10 22° SW 13:41:04 10° S daylight
25 Apr - 04:49:39 10° S 04:57:07 25° SE 05:04:41 10° E visible
25 Apr - 06:51:00 10° SW 07:00:30 51° SSE 07:10:10 10° E daylight
25 Apr - 08:54:57 10° W 09:04:52 64° S 09:14:51 10° ESE daylight
25 Apr - 10:59:38 10° W 11:09:12 49° SSW 11:18:42 10° SE daylight
25 Apr - 13:05:17 10° W 13:12:29 23° SW 13:19:38 10° S daylight
26 Apr - 04:28:11 10° S 04:35:26 24° SE 04:42:49 10° E visible
26 Apr - 06:29:19 10° SW 06:38:46 50° SSE 06:48:23 10° E daylight
26 Apr - 08:33:12 10° WSW 08:43:07 64° S 08:53:06 10° ESE daylight
26 Apr - 10:37:51 10° W 10:47:28 50° SSW 10:57:01 10° SE daylight
26 Apr - 12:43:24 10° W 12:50:49 24° SW 12:58:11 10° S daylight
27 Apr - 04:06:44 10° S 04:13:47 23° SE 04:20:56 10° E visible
27 Apr - 06:07:39 10° SW 06:17:02 49° SSE 06:26:36 10° E daylight
27 Apr - 08:11:28 10° WSW 08:21:21 64° S 08:31:20 10° ESE daylight
27 Apr - 10:16:06 10° W 10:25:43 51° SSW 10:35:20 10° SE daylight
27 Apr - 12:21:32 10° W 12:29:09 25° SW 12:36:42 10° S daylight
28 Apr - 03:45:18 10° S 03:52:06 21° SE 03:59:01 10° E visible
28 Apr - 05:46:00 10° SW 05:55:18 48° SSE 06:04:49 10° E daylight
28 Apr - 07:49:43 10° WSW 07:59:35 64° S 08:09:34 10° E daylight
28 Apr - 09:54:19 10° W 10:03:59 52° SSW 10:13:38 10° SE daylight
28 Apr - 11:59:41 10° W 12:07:28 26° SW 12:15:12 10° S daylight
29 Apr - 03:23:54 10° S 03:30:27 20° SE 03:37:06 10° E visible
29 Apr - 05:24:20 10° SW 05:33:35 46° SSE 05:43:01 10° E daylight
29 Apr - 07:27:58 10° WSW 07:37:49 64° S 07:47:48 10° E daylight
29 Apr - 09:32:33 10° W 09:42:14 53° SSW 09:51:56 10° SE daylight
29 Apr - 11:37:51 10° W 11:45:47 27° SW 11:53:42 10° S daylight
30 Apr - 03:02:31 10° S 03:08:48 19° SE 03:15:10 10° E visible
30 Apr - 05:02:41 10° SW 05:11:51 45° SSE 05:21:15 10° E visible
30 Apr - 07:06:15 10° WSW 07:16:04 64° S 07:26:03 10° E daylight
30 Apr - 09:10:48 10° W 09:20:30 54° SSW 09:30:14 10° SE daylight
30 Apr - 11:16:00 10° W 11:24:06 28° SW 11:32:09 10° S daylight
01 May - 02:41:10 10° SSE 02:47:08 18° SE 02:53:12 10° E visible
01 May - 04:41:03 10° SW 04:50:08 44° SSE 04:59:27 10° E visible
01 May - 06:44:31 10° WSW 06:54:18 63° S 07:04:16 10° E daylight
01 May - 08:49:02 10° W 08:58:44 55° SSW 09:08:30 10° SE daylight
01 May - 10:54:10 10° W 11:02:24 30° SW 11:10:37 10° SSE daylight
